| time (UTC) | temp F | wind direction | speed knots | gust knots | rain 1hr in | rain 24hr in | rain mn in | humidity % | barometer mb |
| 20260509102139 | 48 | 146 | 2.6 | 3.5 | 0.00 | 0.00 | 0.00 | 59 | 998.9 |
| 20260509101624 | 48 | 136 | 2.6 | 3.5 | 0.00 | 0.00 | 0.00 | 58 | 998.9 |
| 20260509101053 | 47 | 139 | 1.7 | 2.6 | 0.00 | 0.00 | 0.00 | 59 | 998.9 |
| 20260509100524 | 47 | 153 | 1.7 | 2.6 | 0.00 | 0.00 | 0.00 | 58 | 998.9 |
| 20260509100004 | 48 | 136 | 2.6 | 3.5 | 0.00 | 0.00 | 0.00 | 57 | 999.2 |
| 20260509095450 | 48 | 147 | 1.7 | 3.5 | 0.00 | 0.00 | 0.00 | 57 | 999.2 |
| 20260509094924 | 47 | 158 | 2.6 | 3.5 | 0.00 | 0.00 | 0.00 | 57 | 999.2 |
| 20260509094418 | 47 | 154 | 1.7 | 3.5 | 0.00 | 0.00 | 0.00 | 57 | 999.5 |
| 20260509093902 | 48 | 153 | 1.7 | 2.6 | 0.00 | 0.00 | 0.00 | 58 | 999.5 |
| 20260509093559 | 48 | 153 | 1.7 | 3.5 | 0.00 | 0.00 | 0.00 | 58 | 999.5 |
| 20260509092831 | 47 | 155 | 2.6 | 3.5 | 0.00 | 0.00 | 0.00 | 58 | 999.5 |
| 20260509092305 | 47 | 165 | 2.6 | 3.5 | 0.00 | 0.00 | 0.00 | 59 | 999.5 |
| 20260509091758 | 47 | 156 | 1.7 | 3.5 | 0.00 | 0.00 | 0.00 | 60 | 999.5 |
| 20260509091255 | 47 | 145 | 2.6 | 5.2 | 0.00 | 0.00 | 0.00 | 60 | 1000.0 |
| 20260509090749 | 47 | 157 | 2.6 | 5.2 | 0.00 | 0.00 | 0.00 | 60 | 1000.0 |
| 20260509090223 | 47 | 157 | 3.5 | 3.5 | 0.00 | 0.00 | 0.00 | 60 | 999.5 |
| 20260509085656 | 47 | 148 | 2.6 | 3.5 | 0.00 | 0.00 | 0.00 | 60 | 1000.0 |
| 20260509085349 | 47 | 152 | 1.7 | 2.6 | 0.00 | 0.00 | 0.00 | 60 | 1000.0 |
| 20260509084627 | 47 | 150 | 1.7 | 2.6 | 0.00 | 0.00 | 0.00 | 61 | 1000.0 |
| 20260509084344 | 47 | 156 | 1.7 | 3.5 | 0.00 | 0.00 | 0.00 | 61 | 1000.0 |
| 20260509083556 | 47 | 156 | 0.9 | 3.5 | 0.00 | 0.00 | 0.00 | 60 | 1000.3 |
| 20260509083050 | 48 | 162 | 1.7 | 2.6 | 0.00 | 0.00 | 0.00 | 60 | 1000.0 |
| 20260509082742 | 48 | 141 | 2.6 | 3.5 | 0.00 | 0.00 | 0.00 | 59 | 1000.0 |
| 20260509082008 | 48 | 154 | 2.6 | 3.5 | 0.00 | 0.00 | 0.00 | 60 | 1000.3 |
| 20260509081503 | 48 | 146 | 2.6 | 3.5 | 0.00 | 0.00 | 0.00 | 61 | 1000.3 |
| 20260509080938 | 47 | 158 | 0.9 | 1.7 | 0.00 | 0.00 | 0.00 | 63 | 1000.7 |
| 20260509080430 | 47 | 156 | 1.7 | 1.7 | 0.00 | 0.00 | 0.00 | 63 | 1000.7 |
| 20260509075920 | 47 | 126 | 0.9 | 1.7 | 0.00 | 0.00 | 0.00 | 64 | 1001.0 |
| 20260509075416 | 47 | 132 | 0.9 | 2.6 | 0.00 | 0.00 | 0.00 | 64 | 1001.0 |
| 20260509074915 | 47 | 137 | 1.7 | 2.6 | 0.00 | 0.00 | 0.00 | 64 | 1000.7 |
| 20260509074629 | 47 | 150 | 1.7 | 2.6 | 0.00 | 0.00 | 0.00 | 64 | 1000.7 |
| 20260509073858 | 47 | 143 | 1.7 | 2.6 | 0.00 | 0.00 | 0.00 | 63 | 1001.0 |
| 20260509073655 | 47 | 143 | 2.6 | 2.6 | 0.00 | 0.00 | 0.00 | 64 | 1001.3 |
| 20260509072325 | 47 | 146 | 1.7 | 2.6 | 0.00 | 0.00 | 0.00 | 65 | 1001.3 |
| 20260509071822 | 47 | 150 | 0.9 | 1.7 | 0.00 | 0.00 | 0.00 | 66 | 1001.3 |
| 20260509071309 | 46 | 157 | 0.9 | 0.9 | 0.00 | 0.00 | 0.00 | 68 | 1001.3 |
| 20260509070801 | 46 | 157 | 0.9 | 1.7 | 0.00 | 0.00 | 0.00 | 67 | 1001.7 |
| 20260509070258 | 46 | 157 | 0.0 | 1.7 | 0.00 | 0.00 | 0.00 | 68 | 1001.7 |
| 20260509065734 | 46 | 157 | 1.7 | 2.6 | 0.00 | 0.00 | 0.00 | 66 | 1001.7 |
| 20260509065231 | 46 | 145 | 0.9 | 5.2 | 0.00 | 0.00 | 0.00 | 68 | 1001.7 |
| 20260509064724 | 46 | 158 | 1.7 | 5.2 | 0.00 | 0.00 | 0.00 | 67 | 1002.0 |
| 20260509064155 | 46 | 184 | 1.7 | 2.6 | 0.00 | 0.00 | 0.00 | 66 | 1002.3 |
| 20260509063630 | 46 | 144 | 0.0 | 1.7 | 0.00 | 0.00 | 0.00 | 65 | 1002.0 |
| 20260509063337 | 46 | 140 | 0.9 | 2.6 | 0.00 | 0.00 | 0.00 | 63 | 1002.0 |
| 20260509062608 | 46 | 164 | 0.9 | 2.6 | 0.00 | 0.00 | 0.00 | 64 | 1002.0 |
| 20260509062539 | 46 | 136 | 0.9 | 1.7 | 0.00 | 0.00 | 0.00 | 64 | 1002.3 |
| 20260509061540 | 46 | 134 | 0.9 | 1.7 | 0.00 | 0.00 | 0.00 | 64 | 1002.0 |
| 20260509061024 | 46 | 135 | 0.9 | 1.7 | 0.00 | 0.00 | 0.00 | 63 | 1002.3 |
| 20260509060517 | 46 | 139 | 0.0 | 1.7 | 0.00 | 0.00 | 0.00 | 64 | 1002.7 |
| 20260509060004 | 46 | 137 | 1.7 | 1.7 | 0.00 | 0.00 | 0.00 | 63 | 1002.7 |
| 20260509055710 | 46 | 148 | 0.9 | 1.7 | 0.00 | 0.00 | 0.00 | 64 | 1002.7 |
| 20260509054930 | 47 | 144 | 0.9 | 1.7 | 0.00 | 0.00 | 0.00 | 63 | 1003.0 |
| 20260509054418 | 47 | 137 | 0.9 | 1.7 | 0.00 | 0.00 | 0.00 | 63 | 1003.0 |
| 20260509054104 | 46 | 137 | 0.0 | 1.7 | 0.00 | 0.00 | 0.00 | 64 | 1003.0 |
| 20260509053338 | 47 | 137 | 0.0 | 2.6 | 0.00 | 0.00 | 0.00 | 63 | 1003.0 |
| 20260509052834 | 47 | 134 | 2.6 | 2.6 | 0.00 | 0.00 | 0.00 | 61 | 1003.0 |
| 20260509052542 | 47 | 137 | 0.9 | 1.7 | 0.00 | 0.00 | 0.00 | 62 | 1003.4 |
| 20260509051753 | 47 | 137 | 0.9 | 1.7 | 0.00 | 0.00 | 0.00 | 62 | 1003.4 |
| 20260509051250 | 47 | 141 | 0.9 | 1.7 | 0.00 | 0.00 | 0.00 | 62 | 1003.4 |
| 20260509050737 | 47 | 137 | 0.0 | 1.7 | 0.00 | 0.00 | 0.00 | 64 | 1003.4 |
| 20260509050220 | 47 | 130 | 0.9 | 2.6 | 0.00 | 0.00 | 0.00 | 62 | 1003.4 |
| 20260509045656 | 47 | 144 | 1.7 | 2.6 | 0.00 | 0.00 | 0.00 | 60 | 1003.4 |
| 20260509045130 | 47 | 134 | 2.6 | 2.6 | 0.00 | 0.00 | 0.00 | 61 | 1003.4 |
| 20260509044625 | 47 | 149 | 1.7 | 2.6 | 0.00 | 0.00 | 0.00 | 62 | 1003.4 |
| 20260509044334 | 47 | 149 | 0.9 | 2.6 | 0.00 | 0.00 | 0.00 | 63 | 1003.4 |
| 20260509043608 | 47 | 162 | 1.7 | 3.5 | 0.00 | 0.00 | 0.00 | 62 | 1003.4 |
| 20260509043050 | 47 | 136 | 3.5 | 3.5 | 0.00 | 0.00 | 0.00 | 61 | 1003.4 |
| 20260509042523 | 47 | 145 | 1.7 | 3.5 | 0.00 | 0.00 | 0.00 | 62 | 1003.7 |
| 20260509042220 | 47 | 158 | 3.5 | 3.5 | 0.00 | 0.00 | 0.00 | 62 | 1003.7 |
| 20260509041451 | 47 | 142 | 1.7 | 3.5 | 0.00 | 0.00 | 0.00 | 63 | 1003.7 |
| 20260509040926 | 47 | 144 | 2.6 | 3.5 | 0.00 | 0.00 | 0.00 | 63 | 1003.7 |
| 20260509040428 | 47 | 146 | 1.7 | 3.5 | 0.00 | 0.00 | 0.00 | 63 | 1003.7 |
| 20260509035858 | 47 | 139 | 1.7 | 3.5 | 0.00 | 0.00 | 0.00 | 64 | 1004.0 |
| 20260509035346 | 47 | 135 | 1.7 | 2.6 | 0.00 | 0.00 | 0.00 | 65 | 1004.0 |
| 20260509034822 | 46 | 134 | 1.7 | 2.6 | 0.00 | 0.00 | 0.00 | 66 | 1004.0 |
| 20260509034543 | 46 | 133 | 1.7 | 2.6 | 0.00 | 0.00 | 0.00 | 66 | 1004.0 |
| 20260509033802 | 46 | 129 | 1.7 | 2.6 | 0.00 | 0.00 | 0.00 | 66 | 1004.0 |
| 20260509033514 | 46 | 129 | 0.9 | 2.6 | 0.00 | 0.00 | 0.00 | 66 | 1004.4 |
| 20260509032731 | 46 | 120 | 0.9 | 1.7 | 0.00 | 0.00 | 0.00 | 66 | 1004.4 |
| 20260509032220 | 46 | 84 | 0.9 | 0.9 | 0.00 | 0.00 | 0.00 | 65 | 1004.7 |
| 20260509031721 | 46 | 83 | 0.0 | 0.9 | 0.00 | 0.00 | 0.00 | 65 | 1004.4 |
| 20260509031215 | 47 | 82 | 0.0 | 0.9 | 0.00 | 0.00 | 0.00 | 65 | 1004.7 |
| 20260509030705 | 47 | 82 | 0.9 | 1.7 | 0.00 | 0.00 | 0.00 | 64 | 1004.7 |
| 20260509030158 | 47 | 80 | 0.0 | 3.5 | 0.00 | 0.00 | 0.00 | 64 | 1004.7 |
| 20260509025641 | 47 | 87 | 0.0 | 3.5 | 0.00 | 0.00 | 0.00 | 64 | 1005.1 |
| 20260509025357 | 47 | 105 | 0.9 | 2.6 | 0.00 | 0.00 | 0.00 | 65 | 1004.7 |
| 20260509024626 | 47 | 133 | 0.9 | 2.6 | 0.00 | 0.00 | 0.00 | 65 | 1005.1 |
| 20260509024103 | 47 | 127 | 1.7 | 2.6 | 0.00 | 0.00 | 0.00 | 64 | 1004.7 |
| 20260509023552 | 46 | 138 | 1.7 | 2.6 | 0.00 | 0.00 | 0.00 | 65 | 1005.1 |
| 20260509023050 | 46 | 134 | 1.7 | 1.7 | 0.00 | 0.00 | 0.00 | 65 | 1005.1 |
| 20260509022549 | 46 | 130 | 1.7 | 2.6 | 0.00 | 0.00 | 0.00 | 65 | 1005.1 |
| 20260509022020 | 46 | 116 | 0.9 | 2.6 | 0.00 | 0.00 | 0.00 | 65 | 1005.1 |
| 20260509021455 | 46 | 104 | 1.7 | 2.6 | 0.00 | 0.00 | 0.00 | 65 | 1005.1 |
| 20260509021150 | 45 | 64 | 0.9 | 2.6 | 0.00 | 0.00 | 0.00 | 66 | 1005.1 |
| 20260509020425 | 42 | 75 | 0.9 | 0.9 | 0.00 | 0.00 | 0.00 | 70 | 1005.1 |
| 20260509015920 | 41 | 63 | 0.0 | 0.0 | 0.00 | 0.00 | 0.00 | 79 | 1005.1 |
| 20260509015353 | 41 | 63 | 0.0 | 0.0 | 0.00 | 0.00 | 0.00 | 74 | 1005.1 |
| 20260509014849 | 41 | 63 | 0.0 | 0.0 | 0.00 | 0.00 | 0.00 | 76 | 1005.1 |
| 20260509014323 | 41 | 63 | 0.0 | 0.0 | 0.00 | 0.00 | 0.00 | 81 | 1005.1 |
| 20260509013800 | 41 | 63 | 0.0 | 0.0 | 0.00 | 0.00 | 0.00 | 80 | 1004.7 |
| 20260509013250 | 41 | 63 | 0.0 | 0.0 | 0.00 | 0.00 | 0.00 | 80 | 1005.1 |
| 20260509012740 | 42 | 63 | 0.0 | 0.0 | 0.00 | 0.00 | 0.00 | 75 | 1005.1 |
| 20260509012228 | 42 | 63 | 0.0 | 0.0 | 0.00 | 0.00 | 0.00 | 74 | 1005.1 |
| 20260509011923 | 43 | 63 | 0.0 | 0.0 | 0.00 | 0.00 | 0.00 | 71 | 1005.1 |
| 20260509011152 | 44 | 63 | 0.0 | 0.0 | 0.00 | 0.00 | 0.00 | 72 | 1004.7 |
| 20260509010624 | 44 | 63 | 0.0 | 0.0 | 0.00 | 0.00 | 0.00 | 67 | 1004.7 |
| 20260509010116 | 45 | 63 | 0.0 | 0.0 | 0.00 | 0.00 | 0.00 | 68 | 1004.7 |
| 20260509005601 | 46 | 62 | 0.0 | 0.0 | 0.00 | 0.00 | 0.00 | 68 | 1004.7 |
| 20260509005053 | 47 | 61 | 0.0 | 0.0 | 0.00 | 0.00 | 0.00 | 62 | 1005.1 |
| 20260509004530 | 47 | 61 | 0.0 | 1.7 | 0.00 | 0.00 | 0.00 | 60 | 1004.7 |
| 20260509004020 | 48 | 62 | 0.0 | 2.6 | 0.00 | 0.00 | 0.00 | 59 | 1004.7 |
| 20260509003521 | 48 | 58 | 0.0 | 2.6 | 0.00 | 0.00 | 0.00 | 59 | 1005.1 |
| 20260509003240 | 49 | 59 | 0.0 | 1.7 | 0.00 | 0.00 | 0.00 | 57 | 1004.7 |
| 20260509002724 | 49 | 74 | 0.9 | 2.6 | 0.00 | 0.00 | 0.00 | 56 | 1004.7 |
| 20260509001958 | 50 | 61 | 0.9 | 5.2 | 0.00 | 0.00 | 0.00 | 56 | 1005.1 |
| 20260509001450 | 50 | 72 | 0.9 | 5.2 | 0.00 | 0.00 | 0.00 | 55 | 1005.1 |
| 20260509000926 | 51 | 84 | 3.5 | 5.2 | 0.00 | 0.00 | 0.00 | 54 | 1005.1 |
| 20260509000426 | 52 | 350 | 0.9 | 1.7 | 0.00 | 0.00 | 0.00 | 55 | 1004.7 |
| 20260508235922 | 51 | 24 | 0.9 | 1.7 | 0.00 | 0.00 | 0.00 | 55 | 1005.1 |
| 20260508235631 | 52 | 2 | 0.0 | 0.9 | 0.00 | 0.00 | 0.00 | 55 | 1004.7 |
| 20260508234907 | 51 | 20 | 0.0 | 1.7 | 0.00 | 0.00 | 0.00 | 55 | 1005.1 |
| 20260508234359 | 52 | 11 | 0.9 | 2.6 | 0.00 | 0.00 | 0.00 | 55 | 1004.4 |
| 20260508233850 | 52 | 31 | 0.9 | 6.1 | 0.00 | 0.00 | 0.00 | 53 | 1004.7 |
| 20260508233338 | 53 | 78 | 3.5 | 3.5 | 0.00 | 0.00 | 0.00 | 51 | 1004.7 |
| 20260508232823 | 55 | 331 | 1.7 | 2.6 | 0.00 | 0.00 | 0.00 | 46 | 1005.1 |
| 20260508232253 | 56 | 333 | 0.0 | 1.7 | 0.00 | 0.00 | 0.00 | 45 | 1005.1 |
| 20260508231728 | 56 | 339 | 1.7 | 3.5 | 0.00 | 0.00 | 0.00 | 46 | 1004.7 |
| 20260508231224 | 57 | 346 | 0.9 | 6.1 | 0.00 | 0.00 | 0.00 | 42 | 1004.7 |
| 20260508230709 | 57 | 327 | 1.7 | 7.0 | 0.00 | 0.00 | 0.00 | 44 | 1005.1 |
| 20260508230159 | 58 | 348 | 1.7 | 7.0 | 0.00 | 0.00 | 0.00 | 40 | 1004.7 |
| 20260508225652 | 58 | 335 | 4.3 | 7.0 | 0.00 | 0.00 | 0.00 | 41 | 1005.1 |
| 20260508225126 | 58 | 328 | 1.7 | 6.1 | 0.00 | 0.00 | 0.00 | 41 | 1005.1 |
| 20260508224626 | 58 | 355 | 1.7 | 7.0 | 0.00 | 0.00 | 0.00 | 40 | 1005.1 |
| 20260508224101 | 58 | 6 | 3.5 | 8.7 | 0.00 | 0.00 | 0.00 | 40 | 1005.1 |
| 20260508223554 | 58 | 356 | 5.2 | 9.6 | 0.00 | 0.00 | 0.00 | 39 | 1005.1 |
| 20260508223029 | 58 | 340 | 5.2 | 7.8 | 0.00 | 0.00 | 0.00 | 40 | 1005.1 |
| 20260508222522 | 58 | 317 | 4.3 | 8.7 | 0.00 | 0.00 | 0.00 | 43 | 1005.1 |
| 20260508222008 | 58 | 323 | 7.0 | 8.7 | 0.00 | 0.00 | 0.00 | 39 | 1005.1 |
| 20260508221455 | 58 | 359 | 4.3 | 7.8 | 0.00 | 0.00 | 0.00 | 38 | 1005.1 |
| 20260508220938 | 57 | 358 | 2.6 | 8.7 | 0.00 | 0.00 | 0.00 | 41 | 1005.1 |
| 20260508220424 | 57 | 356 | 6.1 | 8.7 | 0.00 | 0.00 | 0.00 | 40 | 1005.5 |
| 20260508220136 | 57 | 338 | 5.2 | 11.3 | 0.00 | 0.00 | 0.00 | 41 | 1005.1 |
| 20260508215402 | 58 | 10 | 9.6 | 11.3 | 0.00 | 0.00 | 0.00 | 39 | 1005.1 |
| 20260508214849 | 57 | 288 | 6.1 | 8.7 | 0.00 | 0.00 | 0.00 | 41 | 1005.1 |
| 20260508214327 | 58 | 314 | 3.5 | 13.9 | 0.00 | 0.00 | 0.00 | 41 | 1005.1 |
| 20260508213819 | 58 | 283 | 7.8 | 13.9 | 0.00 | 0.00 | 0.00 | 41 | 1005.1 |
| 20260508213307 | 58 | 345 | 7.8 | 9.6 | 0.00 | 0.00 | 0.00 | 41 | 1005.1 |
| 20260508212800 | 58 | 308 | 3.5 | 9.6 | 0.00 | 0.00 | 0.00 | 40 | 1005.1 |
| 20260508212258 | 58 | 339 | 5.2 | 13.0 | 0.00 | 0.00 | 0.00 | 40 | 1005.1 |
| 20260508211756 | 59 | 291 | 5.2 | 13.0 | 0.00 | 0.00 | 0.00 | 41 | 1005.1 |
| 20260508211706 | 59 | 343 | 3.5 | 11.3 | 0.00 | 0.00 | 0.00 | 41 | 1005.1 |
| 20260508210723 | 60 | 282 | 3.5 | 16.5 | 0.00 | 0.00 | 0.00 | 41 | 1005.1 |
| 20260508210436 | 59 | 287 | 4.3 | 16.5 | 0.00 | 0.00 | 0.00 | 41 | 1005.1 |
| 20260508205702 | 59 | 338 | 9.6 | 13.9 | 0.00 | 0.00 | 0.00 | 41 | 1005.1 |
| 20260508205139 | 59 | 307 | 9.6 | 14.8 | 0.00 | 0.00 | 0.00 | 39 | 1005.1 |
| 20260508204849 | 59 | 304 | 5.2 | 14.8 | 0.00 | 0.00 | 0.00 | 40 | 1005.1 |
| 20260508204059 | 60 | 325 | 5.2 | 13.9 | 0.00 | 0.00 | 0.00 | 39 | 1005.5 |
| 20260508203529 | 60 | 348 | 7.8 | 9.6 | 0.00 | 0.00 | 0.00 | 40 | 1005.5 |
| 20260508203021 | 60 | 237 | 4.3 | 13.0 | 0.00 | 0.00 | 0.00 | 45 | 1005.1 |
| 20260508202735 | 60 | 274 | 7.8 | 13.0 | 0.00 | 0.00 | 0.00 | 39 | 1005.1 |
| 20260508201958 | 59 | 310 | 3.5 | 16.5 | 0.00 | 0.00 | 0.00 | 43 | 1005.5 |
| 20260508201715 | 60 | 103 | 1.7 | 16.5 | 0.00 | 0.00 | 0.00 | 44 | 1005.1 |
| 20260508201147 | 59 | 285 | 5.2 | 8.7 | 0.00 | 0.00 | 0.00 | 40 | 1005.5 |
| 20260508200426 | 58 | 260 | 1.7 | 11.3 | 0.00 | 0.00 | 0.00 | 42 | 1005.1 |
| 20260508200126 | 58 | 336 | 3.5 | 11.3 | 0.00 | 0.00 | 0.00 | 42 | 1005.5 |
| 20260508195352 | 59 | 247 | 3.5 | 7.8 | 0.00 | 0.00 | 0.00 | 38 | 1005.5 |
| 20260508194850 | 58 | 293 | 5.2 | 13.0 | 0.00 | 0.00 | 0.00 | 47 | 1005.8 |
| 20260508194350 | 60 | 289 | 2.6 | 13.0 | 0.00 | 0.00 | 0.00 | 36 | 1005.1 |
| 20260508193821 | 61 | 357 | 5.2 | 14.8 | 0.00 | 0.00 | 0.00 | 37 | 1005.5 |
| 20260508193255 | 58 | 327 | 10.4 | 14.8 | 0.00 | 0.00 | 0.00 | 35 | 1005.5 |
| 20260508193009 | 60 | 300 | 7.8 | 13.0 | 0.00 | 0.00 | 0.00 | 36 | 1005.5 |
| 20260508192223 | 58 | 314 | 7.0 | 8.7 | 0.00 | 0.00 | 0.00 | 38 | 1006.2 |
| 20260508191653 | 56 | 8 | 1.7 | 5.2 | 0.00 | 0.00 | 0.00 | 41 | 1005.8 |
| 20260508191128 | 58 | 343 | 3.5 | 7.8 | 0.00 | 0.00 | 0.00 | 50 | 1006.2 |
| 20260508190628 | 58 | 144 | 1.7 | 8.7 | 0.00 | 0.00 | 0.00 | 37 | 1005.8 |
| 20260508190106 | 57 | 311 | 7.0 | 8.7 | 0.00 | 0.00 | 0.00 | 45 | 1006.2 |
| 20260508185824 | 58 | 299 | 2.6 | 9.6 | 0.00 | 0.00 | 0.00 | 50 | 1005.8 |
| 20260508185307 | 60 | 280 | 2.6 | 9.6 | 0.00 | 0.00 | 0.00 | 38 | 1006.2 |
| 20260508184758 | 58 | 3 | 2.6 | 13.0 | 0.00 | 0.00 | 0.00 | 39 | 1006.2 |
| 20260508184028 | 59 | 305 | 7.8 | 13.0 | 0.00 | 0.00 | 0.00 | 37 | 1006.2 |
| 20260508183501 | 58 | 286 | 2.6 | 12.2 | 0.00 | 0.00 | 0.00 | 40 | 1006.2 |
| 20260508182951 | 57 | 352 | 8.7 | 11.3 | 0.00 | 0.00 | 0.00 | 40 | 1006.2 |
| 20260508182449 | 57 | 302 | 3.5 | 13.0 | 0.00 | 0.00 | 0.00 | 41 | 1006.2 |
| 20260508182209 | 58 | 327 | 8.7 | 13.0 | 0.00 | 0.00 | 0.00 | 40 | 1006.2 |
| 20260508181419 | 58 | 312 | 3.5 | 13.0 | 0.00 | 0.00 | 0.00 | 43 | 1006.5 |
| 20260508180857 | 58 | 309 | 5.2 | 13.0 | 0.00 | 0.00 | 0.00 | 41 | 1006.5 |
| 20260508180552 | 56 | 260 | 4.3 | 11.3 | 0.00 | 0.00 | 0.00 | 44 | 1006.5 |
| 20260508175823 | 56 | 276 | 3.5 | 9.6 | 0.00 | 0.00 | 0.00 | 44 | 1006.5 |
| 20260508175519 | 56 | 308 | 1.7 | 7.8 | 0.00 | 0.00 | 0.00 | 44 | 1006.8 |
| 20260508174720 | 56 | 336 | 7.0 | 8.7 | 0.00 | 0.00 | 0.00 | 43 | 1006.8 |
| 20260508174156 | 56 | 316 | 0.9 | 12.2 | 0.00 | 0.00 | 0.00 | 44 | 1006.8 |
| 20260508173629 | 56 | 328 | 7.0 | 12.2 | 0.00 | 0.00 | 0.00 | 44 | 1006.8 |
| 20260508173123 | 56 | 277 | 3.5 | 12.2 | 0.00 | 0.00 | 0.00 | 43 | 1006.8 |
| 20260508172609 | 56 | 219 | 1.7 | 13.0 | 0.00 | 0.00 | 0.00 | 42 | 1007.2 |
| 20260508172051 | 56 | 316 | 9.6 | 13.0 | 0.00 | 0.00 | 0.00 | 43 | 1007.2 |
| 20260508171539 | 57 | 317 | 5.2 | 9.6 | 0.00 | 0.00 | 0.00 | 42 | 1007.2 |
| 20260508171024 | 56 | 192 | 4.3 | 9.6 | 0.00 | 0.00 | 0.00 | 42 | 1007.2 |
| 20260508170935 | 55 | 258 | 4.3 | 7.8 | 0.00 | 0.00 | 0.00 | 44 | 1007.2 |
| 20260508165928 | 57 | 336 | 4.3 | 9.6 | 0.00 | 0.00 | 0.00 | 43 | 1007.2 |
| 20260508165422 | 55 | 295 | 3.5 | 11.3 | 0.00 | 0.00 | 0.00 | 45 | 1007.5 |
| 20260508164908 | 54 | 320 | 5.2 | 11.3 | 0.00 | 0.00 | 0.00 | 47 | 1007.5 |
| 20260508164359 | 54 | 296 | 3.5 | 12.2 | 0.00 | 0.00 | 0.00 | 46 | 1007.5 |
| 20260508163853 | 55 | 353 | 5.2 | 13.9 | 0.00 | 0.00 | 0.00 | 46 | 1007.9 |
| 20260508163327 | 55 | 238 | 5.2 | 13.9 | 0.00 | 0.00 | 0.00 | 45 | 1007.5 |
| 20260508162826 | 53 | 329 | 5.2 | 13.9 | 0.00 | 0.00 | 0.00 | 46 | 1007.9 |
| 20260508162306 | 54 | 335 | 7.8 | 13.9 | 0.00 | 0.00 | 0.00 | 47 | 1007.5 |
| 20260508161752 | 55 | 242 | 4.3 | 7.8 | 0.00 | 0.00 | 0.00 | 47 | 1007.9 |
| 20260508161250 | 54 | 337 | 3.5 | 7.0 | 0.00 | 0.00 | 0.00 | 47 | 1007.9 |
| 20260508160732 | 55 | 240 | 2.6 | 9.6 | 0.00 | 0.00 | 0.00 | 46 | 1007.9 |
| 20260508160229 | 55 | 259 | 3.5 | 9.6 | 0.00 | 0.00 | 0.00 | 48 | 1007.9 |
| 20260508155728 | 54 | 197 | 4.3 | 12.2 | 0.00 | 0.00 | 0.00 | 48 | 1007.9 |
| 20260508155158 | 53 | 283 | 6.1 | 12.2 | 0.00 | 0.00 | 0.00 | 48 | 1007.9 |
| 20260508154700 | 53 | 191 | 4.3 | 12.2 | 0.00 | 0.00 | 0.00 | 49 | 1007.9 |
| 20260508154146 | 53 | 230 | 3.5 | 12.2 | 0.00 | 0.00 | 0.00 | 50 | 1007.9 |
| 20260508154109 | 53 | 334 | 7.0 | 11.3 | 0.00 | 0.00 | 0.00 | 51 | 1007.9 |
| 20260508153110 | 52 | 302 | 3.5 | 9.6 | 0.00 | 0.00 | 0.00 | 51 | 1007.9 |
| 20260508152601 | 53 | 311 | 3.5 | 7.8 | 0.00 | 0.00 | 0.00 | 53 | 1008.2 |
| 20260508152311 | 52 | 192 | 3.5 | 7.8 | 0.00 | 0.00 | 0.00 | 52 | 1008.2 |
| 20260508151531 | 51 | 3 | 4.3 | 11.3 | 0.00 | 0.00 | 0.00 | 55 | 1008.2 |
| 20260508151020 | 52 | 264 | 7.8 | 12.2 | 0.00 | 0.00 | 0.00 | 53 | 1008.2 |
| 20260508150519 | 53 | 345 | 1.7 | 8.7 | 0.00 | 0.00 | 0.00 | 55 | 1008.2 |
| 20260508145956 | 51 | 325 | 0.0 | 8.7 | 0.00 | 0.00 | 0.00 | 56 | 1008.2 |
| 20260508145510 | 51 | 298 | 2.6 | 7.8 | 0.00 | 0.00 | 0.00 | 59 | 1008.5 |
| 20260508144409 | 51 | 322 | 2.6 | 6.1 | 0.00 | 0.00 | 0.00 | 59 | 1008.5 |
| 20260508143902 | 50 | 213 | 2.6 | 6.1 | 0.00 | 0.00 | 0.00 | 61 | 1008.5 |
| 20260508143339 | 49 | 318 | 0.9 | 7.0 | 0.00 | 0.00 | 0.00 | 62 | 1008.5 |
| 20260508142824 | 51 | 301 | 4.3 | 7.0 | 0.00 | 0.00 | 0.00 | 61 | 1008.5 |
| 20260508142259 | 51 | 334 | 5.2 | 7.0 | 0.00 | 0.00 | 0.00 | 64 | 1008.5 |
| 20260508141729 | 49 | 348 | 1.7 | 5.2 | 0.00 | 0.00 | 0.00 | 65 | 1008.9 |
| 20260508141221 | 49 | 295 | 1.7 | 5.2 | 0.00 | 0.00 | 0.00 | 67 | 1008.9 |
| 20260508140709 | 49 | 232 | 0.9 | 5.2 | 0.00 | 0.00 | 0.00 | 66 | 1008.5 |
| 20260508140159 | 50 | 188 | 1.7 | 5.2 | 0.00 | 0.00 | 0.00 | 66 | 1008.5 |
| 20260508135653 | 49 | 334 | 0.9 | 5.2 | 0.00 | 0.00 | 0.00 | 66 | 1008.5 |
| 20260508135127 | 49 | 239 | 1.7 | 6.1 | 0.00 | 0.00 | 0.00 | 66 | 1008.9 |
| 20260508134626 | 48 | 281 | 1.7 | 7.0 | 0.00 | 0.00 | 0.00 | 69 | 1008.9 |
| 20260508134330 | 47 | 252 | 1.7 | 7.0 | 0.00 | 0.00 | 0.00 | 70 | 1008.9 |
| 20260508133551 | 47 | 205 | 1.7 | 3.5 | 0.00 | 0.00 | 0.00 | 73 | 1008.9 |
| 20260508133050 | 46 | 249 | 1.7 | 3.5 | 0.00 | 0.00 | 0.00 | 72 | 1008.9 |
| 20260508133034 | 46 | 201 | 1.7 | 6.1 | 0.00 | 0.00 | 0.00 | 73 | 1008.9 |
| 20260508132028 | 45 | 212 | 1.7 | 6.1 | 0.00 | 0.00 | 0.00 | 75 | 1008.9 |
| 20260508132012 | 44 | 306 | 1.7 | 3.5 | 0.00 | 0.00 | 0.00 | 75 | 1009.2 |
| 20260508131026 | 44 | 320 | 0.9 | 3.5 | 0.00 | 0.00 | 0.00 | 77 | 1009.2 |
| 20260508130500 | 43 | 302 | 0.9 | 5.2 | 0.00 | 0.00 | 0.00 | 78 | 1009.2 |
| 20260508125952 | 42 | 238 | 1.7 | 5.2 | 0.00 | 0.00 | 0.00 | 78 | 1008.9 |
| 20260508125422 | 42 | 204 | 2.6 | 2.6 | 0.00 | 0.00 | 0.00 | 80 | 1009.2 |
| 20260508124923 | 40 | 198 | 2.6 | 2.6 | 0.00 | 0.00 | 0.00 | 82 | 1009.2 |
| 20260508124402 | 40 | 303 | 1.7 | 1.7 | 0.00 | 0.00 | 0.00 | 83 | 1009.2 |
| 20260508123852 | 39 | 300 | 0.0 | 0.9 | 0.00 | 0.00 | 0.00 | 85 | 1009.6 |
| 20260508123547 | 38 | 307 | 0.9 | 1.7 | 0.00 | 0.00 | 0.00 | 86 | 1009.6 |
| 20260508122826 | 38 | 215 | 0.9 | 2.6 | 0.00 | 0.00 | 0.00 | 88 | 1009.2 |
| 20260508122319 | 38 | 288 | 1.7 | 1.7 | 0.00 | 0.00 | 0.00 | 89 | 1009.6 |
| 20260508121756 | 37 | 325 | 0.0 | 0.0 | 0.00 | 0.00 | 0.00 | 90 | 1009.6 |
| 20260508121230 | 36 | 333 | 0.0 | 0.0 | 0.00 | 0.00 | 0.00 | 94 | 1009.6 |
| 20260508120722 | 35 | 333 | 0.0 | 0.0 | 0.00 | 0.00 | 0.00 | 95 | 1009.2 |
| 20260508120208 | 35 | 304 | 0.0 | 0.9 | 0.00 | 0.00 | 0.00 | 97 | 1009.2 |
| 20260508115702 | 34 | 343 | 0.0 | 0.9 | 0.00 | 0.00 | 0.00 | 99 | 1009.2 |
| 20260508115138 | 33 | 347 | 0.0 | 0.0 | 0.00 | 0.00 | 0.00 | 99 | 1009.2 |
| 20260508114846 | 32 | 347 | 0.0 | 0.0 | 0.00 | 0.00 | 0.00 | 99 | 1009.2 |
| 20260508114059 | 31 | 348 | 0.0 | 0.0 | 0.00 | 0.00 | 0.00 | 99 | 1009.2 |
| 20260508113244 | 30 | 348 | 0.0 | 0.0 | 0.00 | 0.00 | 0.00 | 99 | 1009.2 |
| 20260508112509 | 30 | 348 | 0.0 | 0.0 | 0.00 | 0.00 | 0.00 | 99 | 1008.9 |
| 20260508112443 | 29 | 348 | 0.0 | 0.0 | 0.00 | 0.00 | 0.00 | 99 | 1008.9 |
| 20260508111716 | 29 | 348 | 0.0 | 0.0 | 0.00 | 0.00 | 0.00 | 99 | 1009.2 |
| 20260508110926 | 29 | 348 | 0.0 | 0.0 | 0.00 | 0.00 | 0.00 | 99 | 1009.2 |
| 20260508110426 | 28 | 348 | 0.0 | 0.0 | 0.00 | 0.00 | 0.00 | 99 | 1008.5 |
| 20260508105922 | 28 | 348 | 0.0 | 0.0 | 0.00 | 0.00 | 0.00 | 99 | 1008.9 |
| 20260508105412 | 28 | 348 | 0.0 | 0.0 | 0.00 | 0.00 | 0.00 | 99 | 1009.2 |
| 20260508105125 | 27 | 348 | 0.0 | 0.0 | 0.00 | 0.00 | 0.00 | 99 | 1008.9 |
| 20260508104607 | 27 | 349 | 0.0 | 0.0 | 0.00 | 0.00 | 0.00 | 99 | 1008.9 |
| 20260508104051 | 26 | 349 | 0.0 | 0.0 | 0.00 | 0.00 | 0.00 | 99 | 1008.9 |
| 20260508103545 | 26 | 349 | 0.0 | 0.0 | 0.00 | 0.00 | 0.00 | 99 | 1008.9 |
| 20260508102826 | 26 | 349 | 0.0 | 0.0 | 0.00 | 0.00 | 0.00 | 99 | 1008.9 |